FW3988 Weather Reports


time (UTC)temp
C
wind
direction
speed
KPH
gust
KPH
rain 1hr
cm
rain 24hr
cm
rain mn
cm
humidity
%
barometer
mb
20260507040133 26 302 6.4 16.1 0.00 0.00 0.00 71 1011.8
20260507034551 26 286 4.8 12.9 0.00 0.00 0.00 72 1011.9
20260507033008 26 287 9.7 17.7 0.00 0.00 0.00 74 1011.8
20260507031559 26 330 4.8 16.1 0.00 0.00 0.00 75 1011.7
20260507030138 26 292 9.7 17.7 0.00 0.00 0.00 75 1011.5
20260507024534 26 288 8.0 16.1 0.00 0.00 0.00 75 1011.4
20260507023002 26 267 9.7 20.9 0.00 0.00 0.00 75 1011.4
20260507021601 26 295 8.0 16.1 0.00 0.00 0.00 75 1011.3
20260507020028 26 275 14.5 24.1 0.00 0.00 0.00 75 1011.3
20260507014531 26 275 9.7 19.3 0.00 0.00 0.00 74 1011.3
20260507013007 26 242 6.4 17.7 0.00 0.00 0.00 72 1011.1
20260507011553 26 294 11.3 19.3 0.00 0.00 0.00 72 1011.0
20260507010137 27 301 9.7 19.3 0.00 0.00 0.00 72 1010.9
20260507004512 27 268 9.7 22.5 0.00 0.00 0.00 72 1010.8
20260507003014 27 289 12.9 24.1 0.00 0.00 0.00 71 1010.8
20260507001602 27 287 14.5 24.1 0.00 0.00 0.00 69 1010.7
20260507000145 28 286 14.5 24.1 0.00 0.00 0.00 68 1010.6
20260506234542 27 269 11.3 25.7 0.00 0.00 0.00 68 1010.5
20260506233041 28 288 11.3 20.9 0.00 0.00 0.00 65 1010.5
20260506231537 28 266 12.9 22.5 0.00 0.00 0.00 65 1010.6
20260506230133 28 293 11.3 24.1 0.00 0.00 0.00 65 1010.6
20260506224556 28 269 12.9 22.5 0.00 0.00 0.00 59 1010.6
20260506223100 29 299 11.3 22.5 0.00 0.00 0.00 61 1010.7
20260506221547 29 273 11.3 19.3 0.00 0.00 0.00 62 1010.7
20260506220007 28 279 9.7 17.7 0.00 0.00 0.00 63 1010.9
20260506214609 29 268 9.7 25.7 0.00 0.00 0.00 61 1010.9
20260506214502 28 279 12.9 25.7 0.00 0.00 0.00 60 1010.8
20260506213056 29 246 9.7 22.5 0.00 0.00 0.00 63 1011.0
20260506211547 30 254 8.0 20.9 0.00 0.00 0.00 67 1011.0
20260506210138 29 248 11.3 17.7 0.00 0.00 0.00 66 1011.0
20260506204510 29 237 11.3 20.9 0.00 0.00 0.00 68 1011.2
20260506203100 29 315 11.3 19.3 0.00 0.00 0.00 67 1011.4
20260506203001 29 253 9.7 19.3 0.00 0.00 0.00 66 1011.5
20260506201548 29 255 9.7 20.9 0.00 0.00 0.00 66 1011.7
20260506200142 29 236 11.3 22.5 0.00 0.00 0.00 65 1011.8
20260506194541 29 233 11.3 19.3 0.00 0.00 0.00 63 1012.0
20260506193034 28 259 6.4 19.3 0.00 0.00 0.00 67 1012.1
20260506191515 28 224 11.3 20.9 0.00 0.00 0.00 68 1012.4
20260506190029 28 280 9.7 22.5 0.00 0.00 0.00 68 1012.6
20260506184516 28 213 11.3 17.7 0.00 0.00 0.00 69 1012.6
20260506183108 28 277 9.7 22.5 0.00 0.00 0.00 66 1012.5
20260506181547 28 288 8.0 17.7 0.00 0.00 0.00 63 1012.6
20260506180135 28 265 6.4 16.1 0.00 0.00 0.00 67 1012.7
20260506174507 28 242 8.0 16.1 0.00 0.00 0.00 70 1012.8
20260506173127 27 286 6.4 12.9 0.00 0.00 0.00 67 1012.8
20260506173002 27 289 8.0 16.1 0.00 0.00 0.00 67 1012.9
20260506171556 27 263 9.7 16.1 0.00 0.00 0.00 69 1012.9
20260506170028 27 272 6.4 17.7 0.00 0.00 0.00 67 1012.8
20260506164518 27 279 4.8 12.9 0.00 0.00 0.00 68 1012.7
20260506163009 27 233 8.0 12.9 0.00 0.00 0.00 70 1012.6
20260506161555 26 248 8.0 14.5 0.00 0.00 0.00 72 1012.6
20260506160143 26 271 6.4 14.5 0.00 0.00 0.00 73 1012.5
20260506154509 26 340 1.6 8.0 0.00 0.00 0.00 69 1012.5
20260506153006 25 319 3.2 9.7 0.00 0.00 0.00 72 1012.4
20260506151556 25 279 4.8 11.3 0.00 0.00 0.00 74 1012.4
20260506150146 24 306 1.6 4.8 0.00 0.00 0.00 77 1012.4
20260506144532 23 321 0.0 3.2 0.00 0.00 0.00 80 1012.4
20260506143101 23 10 0.0 3.2 0.00 0.00 0.00 82 1012.3
20260506143002 23 10 0.0 4.8 0.00 0.00 0.00 83 1012.3
20260506141550 22 13 1.6 4.8 0.00 0.00 0.00 85 1012.3
20260506140134 22 9 0.0 6.4 0.00 0.00 0.00 86 1012.3
20260506134515 22 347 1.6 4.8 0.00 0.00 0.00 87 1012.2
20260506133138 21 316 3.2 6.4 0.00 0.00 0.00 89 1012.2
20260506131559 21 330 1.6 6.4 0.00 0.00 0.00 90 1012.0
20260506130014 21 350 0.0 3.2 0.00 0.00 0.00 91 1011.7
20260506124504 20 350 1.6 4.8 0.00 0.00 0.00 91 1011.5
20260506123053 21 26 3.2 6.4 0.00 0.00 0.00 90 1011.5
20260506121556 21 24 1.6 6.4 0.00 0.00 0.00 90 1011.3
20260506120151 21 17 1.6 6.4 0.00 0.00 0.00 89 1011.3
20260506114607 21 11 0.0 0.0 0.00 0.00 0.00 88 1011.2
20260506113102 21 11 0.0 3.2 0.00 0.00 0.00 88 1011.2
20260506111548 21 11 1.6 4.8 0.00 0.00 0.00 88 1010.9
20260506110140 21 335 1.6 3.2 0.00 0.00 0.00 87 1010.9
20260506104555 21 309 1.6 3.2 0.00 0.00 0.00 86 1010.9
20260506103033 21 309 0.0 3.2 0.00 0.00 0.00 86 1011.0
20260506101505 21 309 0.0 0.0 0.00 0.00 0.00 86 1011.0
20260506100017 22 309 0.0 0.0 0.00 0.00 0.00 84 1010.9
20260506094603 22 309 0.0 0.0 0.00 0.00 0.00 85 1010.8
20260506093035 22 309 0.0 0.0 0.00 0.00 0.00 86 1010.8
20260506091600 22 309 0.0 0.0 0.00 0.00 0.00 84 1011.0
20260506091500 22 309 0.0 0.0 0.00 0.00 0.00 84 1011.1
20260506090005 22 309 0.0 0.0 0.00 0.00 0.00 86 1011.0
20260506084600 22 309 0.0 0.0 0.00 0.00 0.00 87 1011.2
20260506083037 22 309 0.0 3.2 0.00 0.00 0.00 88 1011.2
20260506081513 22 309 0.0 3.2 0.00 0.00 0.00 88 1011.2
20260506080152 22 309 0.0 0.0 0.00 0.00 0.00 88 1011.3
20260506073005 23 309 0.0 4.8 0.00 0.00 0.00 87 1011.5
20260506071555 23 309 0.0 3.2 0.00 0.00 0.00 86 1011.7
20260506070134 23 309 0.0 3.2 0.00 0.00 0.00 86 1011.7
20260506061545 23 286 0.0 4.8 0.00 0.00 0.00 83 1012.0
20260506044500 24 304 3.2 8.0 0.00 0.00 0.00 84 1011.7
20260506043057 25 288 6.4 19.3 0.00 0.00 0.00 84 1011.7
20260506041548 25 287 4.8 12.9 0.00 0.00 0.00 82 1011.5